Regional Weather Roundup
Issued by NWS

Home | Current Version | Previous Version | Graphics & Text | Print | Product List | Glossary On
Versions: 1 2 3 4 5 6 7 8 9 10 11 12 13 14 15 16 17 18 19 20 21 22 23 24 25 26 27 28 29 30 31 32 33 34 35 36 37 38 39 40 41 42 43 44 45 46 47 48 49 50
000
ASUS45 KBOU 041607
RWRCO

WEATHER ROUNDUP FOR COLORADO
NATIONAL WEATHER SERVICE DENVER/BOULDER CO
1000 AM MDT MON MAY 04 2015

NOTE: "FAIR" INDICATES FEW OR NO CLOUDS BELOW 12000 FEET WITH NO
SIGNIFICANT WEATHER AND/OR OBSTRUCTIONS TO VISIBILITY.

COZ001>005-013-030-031-041700-
...NORTHWEST COLORADO...

CITY           SKY/WX    TMP DP  RH WIND       PRES   REMARKS
CRAIG          MOSUNNY   56  43  61 CALM      30.09S
HAYDEN         CLOUDY    52  37  58 CALM      30.10S
MEEKER         MOSUNNY   55  43  63 NE3       30.09F
MOUNT WERNER   NOT AVBL
STEAMBOAT SPGS PTSUNNY   53  38  55 W3        30.10S
WALDEN         CLOUDY    46  36  66 CALM      30.15S
$$

COZ006>008-011-041700-
...WEST CENTRAL VALLEYS...

CITY           SKY/WX    TMP DP  RH WIND       PRES   REMARKS
GRAND JUNCTION MOSUNNY   63  43  48 SE5       30.02S
MONTROSE       PTSUNNY   61  40  45 N7        30.06F
EAGLE          PTSUNNY   48  43  81 CALM      30.14S
RIFLE          CLOUDY    53  45  74 CALM      30.07F
DELTA          MOSUNNY   62  44  52 CALM      30.05S
NUCLA          MOSUNNY   61  36  39 SW5       30.08S
$$

COZ017>023-064>068-041700-
...SOUTHWEST COLORADO...

CITY           SKY/WX    TMP DP  RH WIND       PRES   REMARKS
DURANGO        MOSUNNY   58  39  49 VRB5      30.10R
CORTEZ         SUNNY     60  40  47 S3        30.05F
PAGOSA SPRINGS SUNNY     55  35  48 W3        30.15S
TELLURIDE      MOSUNNY   52  31  44 CALM      30.19S
WOLF CREEK PAS NOT AVBL
$$

COZ009-010-012-014-032>034-037-058>063-041700-
...CENTRAL COLORADO...

CITY           SKY/WX    TMP DP  RH WIND       PRES   REMARKS
ASPEN          PTSUNNY   50  38  63 N6        30.12F
BUENA VISTA    NOT AVBL
COPPER MTN     CLOUDY    37  30  75 S14G25    30.31R
BERTHOUD PASS  HAZE      28  21  74 SE6       30.34R VSB 1/2 WCI  22
COTTONWOOD PAS CLOUDY    43  37  81 E6        30.25S
GUNNISON       SUNNY     45  36  70 CALM      30.20S
KREMMLING      CLOUDY    52  36  54 CALM      30.15F
LEADVILLE      CLOUDY    39  34  82 S6        30.22S
MONARCH PASS   FOG       32  32 100 E3        30.41S VSB<1/4
SALIDA         PTSUNNY   53  42  65 E9G16     30.24F
SUNLIGHT       CLOUDY    41  34  75 CALM      30.28S
WILKERSON PASS FOG       34  32  93 MISG      30.33R VSB<1/4
$$

COZ069>075-041700-
...SAN LUIS VALLEY/SANGRE DE CRISTO MOUNTAINS...

CITY           SKY/WX    TMP DP  RH WIND       PRES   REMARKS
ALAMOSA        SUNNY     54  37  52 CALM      30.15F
LA VETA PASS   FOG       39  37  93 MISG      30.27R VSB<1/4
SAGUACHE       MOSUNNY   52  37  58 SE12      30.17S
$$

COZ035-036-038>040-041700-
...NORTHERN COLORADO FRONT RANGE...

CITY           SKY/WX    TMP DP  RH WIND       PRES   REMARKS
DENVER INTL AP LGT RAIN  50  46  86 E7        30.14R
DMNS CITY PARK   N/A     52  46  80 E2G8      30.14R
AURORA         CLOUDY    48  48 100 E6        30.15R
FRONT RANGE AP LGT RAIN  50  48  93 E3        30.15S
ERIE MUNI ARPT CLOUDY    51  47  87 CALM      30.14R
BOULDER MUN AP DRIZZLE   50  50 100 NE3       30.14R
CENTENNIAL     CLOUDY    51  46  83 N3        30.14S
BROOMFIELD     CLOUDY    50  48  93 N5        30.15R
FORT COLLINS   CLOUDY    52  45  76 SE8       30.15S
LONGMONT       LGT RAIN  53  50  89 CALM      30.16R
$$

COZ041-046-047-076>085-087-088-041700-
...PIKES PEAK/PALMER DIVIDE AND SOUTHERN FOOTHILLS...

CITY           SKY/WX    TMP DP  RH WIND       PRES   REMARKS
COLO. SPRINGS  PTSUNNY   55  45  68 S8        30.15S
A. F. ACADEMY  NOT AVBL
ELLICOTT       CLOUDY   N/A N/A N/A SW5       30.14S
FALCON         CLOUDY    52  42  69 E3        30.17F
FORT CARSON    NOT AVBL
LIMON          CLOUDY    53  46  77 VRB5      30.14R
MONUMENT HILL  CLOUDY    48  43  81 N3        30.16S
TRINIDAD       MOSUNNY   59  45  59 NE3       30.12S
$$

COZ042>045-048>051-090-091-041700-
...NORTHEAST COLORADO...

CITY           SKY/WX    TMP DP  RH WIND       PRES   REMARKS
GREELEY ARPT   CLOUDY    52  39  62 SE13      30.15S
AKRON          CLOUDY    51  40  65 E8        30.14S
BURLINGTON     PTSUNNY   54  46  74 NE16      30.10S
WRAY           CLOUDY    51  45  77 N7        30.12S
STERLING       CLOUDY    54  39  58 E6        30.14S
HOLYOKE        NOT AVBL
FORT MORGAN    CLOUDY    48 -13   7 NE9       30.15S
$$

COZ086-089-092>099-041700-
...SOUTHEAST COLORADO...

CITY           SKY/WX    TMP DP  RH WIND       PRES   REMARKS
PUEBLO         PTSUNNY   59  48  67 S7        30.10S
LA JUNTA       PTSUNNY   63  49  60 NE14      30.08F
LAMAR          CLOUDY    60  48  64 E8        30.07R
SPRINGFIELD      N/A     63  50  62 N12       30.07R
$$


USA.gov is the U.S. government's official web portal to all federal, state and local government web resources and services.